This is the latest recevied weather packets stored in our database for station/object K9ZOG. If no packets are shown the sender has not sent any weather packets the latest 10 day(s).
| Time | Temp. | Humidity | Pressure | Rain* | Wind** | Luminosity | Snow |
|---|---|---|---|---|---|---|---|
| 1777046953 | 22.78° C | 65% | 1006.1 hPa | 0 mm | - | 107 W/m² | - |
| 1777046653 | 22.78° C | 64% | 1006.1 hPa | 0 mm | - | 275 W/m² | - |
| 1777046353 | 22.78° C | 64% | 1006 hPa | 0 mm | - | 251 W/m² | - |
| 1777046055 | 23.33° C | 63% | 1005.9 hPa | 0 mm | - | 353 W/m² | - |
| 1777045753 | 23.33° C | 63% | 1005.9 hPa | 0 mm | - | 338 W/m² | - |
| 1777045453 | 23.33° C | 64% | 1005.8 hPa | 0 mm | - | 701 W/m² | - |
| 1777045153 | 23.33° C | 65% | 1005.8 hPa | 0 mm | - | 424 W/m² | - |
| 1777044855 | 23.33° C | 64% | 1005.7 hPa | 0 mm | - | 378 W/m² | - |
| 1777044553 | 23.33° C | 64% | 1005.6 hPa | 0 mm | - | 560 W/m² | - |
| 1777044254 | 23.33° C | 64% | 1005.5 hPa | 0 mm | - | 303 W/m² | - |
| 1777043954 | 23.33° C | 64% | 1005.6 hPa | 0 mm | - | 757 W/m² | - |
| 1777043653 | 23.33° C | 64% | 1005.6 hPa | 0 mm | - | 554 W/m² | - |
| 1777043353 | 22.78° C | 64% | 1005.7 hPa | 0 mm | - | 579 W/m² | - |
| 1777043055 | 22.78° C | 65% | 1005.7 hPa | 0 mm | - | 680 W/m² | - |
| 1777042753 | 22.22° C | 66% | 1005.5 hPa | 0 mm | - | 602 W/m² | - |
| 1777042454 | 22.22° C | 66% | 1005.3 hPa | 0 mm | - | 488 W/m² | - |
| 1777042153 | 22.22° C | 65% | 1005.3 hPa | 0 mm | - | 441 W/m² | - |
| 1777041853 | 22.22° C | 65% | 1005.3 hPa | 0 mm | - | 380 W/m² | - |
| 1777041553 | 22.22° C | 66% | 1005.2 hPa | 0 mm | - | 338 W/m² | - |
| 1777041252 | 22.22° C | 66% | 1005.1 hPa | 0 mm | - | 429 W/m² | - |
| 1777040953 | 21.67° C | 67% | 1005.2 hPa | 0 mm | - | 409 W/m² | - |
| 1777040654 | 22.22° C | 66% | 1005.3 hPa | 0 mm | - | 435 W/m² | - |
| 1777040353 | 21.67° C | 67% | 1005.3 hPa | 0 mm | - | 364 W/m² | - |
| 1777040054 | 21.67° C | 66% | 1005.3 hPa | 0 mm | - | 383 W/m² | - |
| 1777039753 | 21.67° C | 67% | 1005.3 hPa | 0 mm | - | 323 W/m² | - |
* Rain latest hour (hover to see other rain measurements)
** Current wind speed in m/s (hover to see current wind gust speed)